{"data":{"norad_id":44714,"intl_designator":"2019-074B","name":"STARLINK-1008","alt_names":[],"object_type":"PAYLOAD","status":"ACTIVE","operator":null,"country":"US","launch_date":"2019-11-11","launch_site_code":"AFETR","launch_vehicle":null,"mission":null,"orbit_class":"UNKNOWN","rcs_meters":null,"size_class":null,"mass_kg":null,"dimensions":null,"purposes":["comms"],"wikipedia_slug":null,"has_3d_model":false,"image_url":null,"decayed_at":null,"tle_current":{"epoch":"2026-09-19T19:29:16.918368Z","epoch_age_seconds":73907,"freshness":"FRESH","line1":"1 44714U 19074B   26262.81200137  .00029995  00000+0  30397-3 0  9999","line2":"2 44714  53.1472 330.3726 0002434  72.3186 287.8096 15.65019755378965","mean_motion":15.65019755,"eccentricity":0.0002434,"inclination_deg":53.1472,"raan_deg":330.3726,"arg_perigee_deg":72.3186,"mean_anomaly_deg":287.8096,"bstar":0.00030397,"rev_number":37896,"period_min":92.011618089767,"perigee_km":371.53867390605,"apogee_km":374.82521596844,"semimajor_km":6751.3189449372,"source":"CELESTRAK","updated_at":"2026-09-20T09:00:38.217795Z"}}}